EW2106 Weather Reports


time (UTC)temp
C
wind
direction
speed
KPH
gust
KPH
rain 1hr
cm
rain 24hr
cm
rain mn
cm
humidity
%
barometer
mb
20260507130558 10 349 3.2 11.3 0.00 0.33 0.20 77 1007.5
20260507125557 10 0 1.6 8.0 0.00 0.33 0.20 80 1007.6
20260507125054 10 5 3.2 8.0 0.00 0.33 0.20 81 1007.5
20260507124607 10 277 1.6 12.9 0.00 0.33 0.20 82 1007.5
20260507124057 9 298 1.6 12.9 0.00 0.33 0.20 82 1007.2
20260507123555 9 343 4.8 16.1 0.00 0.33 0.20 81 1007.2
20260507123058 9 346 3.2 16.1 0.00 0.33 0.20 82 1007.3
20260507122556 9 334 4.8 16.1 0.00 0.33 0.20 82 1007.2
20260507122055 9 321 1.6 8.0 0.00 0.33 0.20 83 1007.3
20260507121555 9 360 1.6 8.0 0.00 0.33 0.20 84 1007.3
20260507121055 9 5 1.6 9.7 0.00 0.33 0.20 84 1007.3
20260507120557 8 300 3.2 9.7 0.00 0.33 0.20 84 1007.3
20260507120055 8 332 1.6 11.3 0.00 0.33 0.20 85 1007.3
20260507115555 8 11 3.2 11.3 0.00 0.33 0.20 85 1007.2
20260507115054 8 303 1.6 12.9 0.00 0.33 0.20 86 1007.1
20260507114610 8 329 1.6 12.9 0.00 0.33 0.20 86 1007.2
20260507114054 8 352 3.2 12.9 0.00 0.33 0.20 86 1007.2
20260507113556 8 32 1.6 6.4 0.00 0.33 0.20 87 1007.1
20260507113055 8 332 1.6 6.4 0.00 0.33 0.20 87 1007.1
20260507112557 8 12 0.0 8.0 0.00 0.33 0.20 88 1007.0
20260507112057 8 0 0.0 8.0 0.00 0.33 0.20 88 1006.9
20260507111603 8 355 1.6 8.0 0.03 0.33 0.20 88 1006.9
20260507111056 8 5 0.0 4.8 0.03 0.33 0.20 89 1006.9
20260507110558 8 342 0.0 4.8 0.03 0.33 0.20 89 1006.9
20260507110057 8 0 0.0 4.8 0.05 0.33 0.20 89 1007.2
20260507105554 8 0 0.0 4.8 0.05 0.33 0.20 89 1007.2
20260507105057 8 0 0.0 4.8 0.05 0.33 0.20 89 1007.3
20260507104559 8 318 0.0 4.8 0.05 0.33 0.20 88 1007.2
20260507104054 8 0 0.0 4.8 0.05 0.33 0.20 88 1006.8
20260507103554 8 0 0.0 6.4 0.08 0.33 0.20 88 1006.9
20260507103058 8 0 1.6 6.4 0.10 0.33 0.20 87 1006.9
20260507102557 8 298 1.6 6.4 0.13 0.33 0.20 87 1007.0
20260507102054 8 342 1.6 6.4 0.15 0.33 0.20 87 1006.9
20260507101555 8 303 1.6 11.3 0.13 0.30 0.18 87 1006.8
20260507101056 8 5 1.6 12.9 0.13 0.30 0.18 86 1006.8
20260507100558 8 292 3.2 12.9 0.13 0.30 0.18 86 1006.8
20260507100058 8 327 4.8 16.1 0.10 0.28 0.15 86 1006.6
20260507095559 8 305 4.8 16.1 0.10 0.28 0.15 86 1006.5
20260507095056 8 345 6.4 16.1 0.10 0.28 0.15 86 1006.6
20260507094601 8 340 4.8 14.5 0.10 0.28 0.15 86 1006.6
20260507094058 8 325 4.8 12.9 0.13 0.28 0.15 86 1006.6
20260507093557 9 281 4.8 16.1 0.10 0.25 0.13 85 1006.6
20260507093057 9 355 6.4 16.1 0.08 0.23 0.10 85 1006.5
20260507092559 9 292 3.2 9.7 0.05 0.20 0.08 85 1006.6
20260507092058 9 327 3.2 22.5 0.03 0.18 0.05 85 1006.5
20260507091555 9 310 4.8 22.5 0.03 0.18 0.05 84 1006.8
20260507091054 10 338 6.4 17.7 0.03 0.18 0.05 83 1006.6
20260507090558 10 310 4.8 17.7 0.03 0.18 0.05 83 1006.6
20260507090057 10 314 6.4 14.5 0.05 0.18 0.05 84 1006.7
20260507085558 10 319 3.2 16.1 0.05 0.18 0.05 84 1006.5
20260507085100 10 272 3.2 19.3 0.05 0.18 0.05 84 1006.1
20260507084559 10 336 6.4 19.3 0.05 0.18 0.05 84 1006.1
20260507084057 10 324 8.0 19.3 0.03 0.15 0.03 84 1006.3
20260507083555 10 336 4.8 16.1 0.03 0.15 0.03 85 1006.1
20260507083056 10 355 3.2 16.1 0.03 0.15 0.03 84 1005.9
20260507082557 10 348 4.8 27.4 0.03 0.15 0.03 84 1006.1
20260507082055 10 310 6.4 27.4 0.03 0.15 0.03 84 1006.1
20260507081557 10 325 8.0 27.4 0.03 0.15 0.03 84 1006.2
20260507081057 10 348 9.7 20.9 0.03 0.15 0.03 84 1006.2
20260507080556 10 344 9.7 20.9 0.03 0.15 0.03 83 1006.1
20260507080101 10 308 6.4 20.9 0.00 0.13 0.00 82 1006.0
20260507075555 11 325 8.0 19.3 0.00 0.13 0.00 81 1006.0
20260507075055 11 323 6.4 17.7 0.00 0.13 0.00 82 1006.0
20260507074558 11 5 6.4 17.7 0.00 0.13 0.00 81 1005.9
20260507074055 11 360 3.2 19.3 0.00 0.13 0.00 82 1005.5
20260507073557 11 304 3.2 19.3 0.00 0.13 0.00 81 1005.6
20260507073109 11 355 3.2 17.7 0.00 0.13 0.00 81 1005.7
20260507072555 11 350 4.8 17.7 0.00 0.13 0.00 81 1005.6
20260507072058 11 290 4.8 16.1 0.00 0.13 0.00 81 1005.7
20260507071610 11 309 6.4 16.1 0.00 0.13 0.00 81 1005.6
20260507071055 11 307 6.4 16.1 0.00 0.13 0.00 82 1005.7
20260507070556 11 327 4.8 16.1 0.00 0.13 0.00 83 1005.6
20260507070105 11 275 3.2 16.1 0.00 0.13 0.00 84 1005.6
20260507065600 11 325 4.8 16.1 0.00 0.13 0.00 85 1005.6
20260507065055 11 327 4.8 14.5 0.00 0.13 0.00 85 1005.6
20260507064600 11 282 1.6 12.9 0.00 0.13 0.00 86 1005.5
20260507064055 11 320 1.6 12.9 0.00 0.13 0.00 86 1005.2
20260507063554 11 306 3.2 12.9 0.00 0.13 0.00 85 1005.2
20260507063100 11 260 4.8 12.9 0.00 0.13 0.00 85 1005.2
20260507062555 12 326 1.6 9.7 0.00 0.13 0.00 86 1005.3
20260507062055 12 331 1.6 8.0 0.00 0.13 0.00 86 1005.4
20260507061556 12 341 3.2 8.0 0.00 0.13 0.00 86 1005.6
20260507061054 12 304 1.6 11.3 0.00 0.13 0.00 86 1005.7
20260507060554 12 267 3.2 12.9 0.00 0.13 0.00 87 1005.5
20260507060100 12 197 3.2 17.7 0.00 0.13 0.00 88 1005.5
20260507055556 12 306 4.8 17.7 0.00 0.13 0.00 89 1005.7
20260507055057 12 263 4.8 16.1 0.00 0.13 0.00 90 1005.8
20260507054554 12 322 3.2 12.9 0.00 0.13 0.00 91 1005.6
20260507054059 12 330 3.2 16.1 0.00 0.13 0.00 90 1005.7
20260507053556 12 344 3.2 16.1 0.00 0.13 0.00 90 1005.6
20260507053116 12 321 6.4 17.7 0.00 0.13 0.00 90 1005.4
20260507052554 12 286 6.4 17.7 0.00 0.13 0.00 90 1005.4
20260507052055 12 324 6.4 17.7 0.00 0.13 0.00 90 1005.6
20260507051555 13 350 8.0 17.7 0.00 0.13 0.00 90 1005.6
20260507051054 13 330 4.8 20.9 0.00 0.13 0.00 92 1005.4
20260507050555 13 348 6.4 20.9 0.00 0.13 0.00 93 1005.3
20260507050056 13 332 4.8 17.7 0.00 0.13 0.00 94 1005.3
20260507045600 13 323 6.4 17.7 0.00 0.13 0.00 94 1005.3
20260507045055 13 272 4.8 11.3 0.00 0.13 0.00 95 1005.2
20260507044622 13 360 3.2 11.3 0.00 0.13 0.00 95 1005.3
20260507044056 13 0 3.2 11.3 0.00 0.13 0.00 95 1005.5
20260507043554 13 297 1.6 4.8 0.00 0.13 0.00 95 1005.5
20260507043056 13 236 0.0 4.8 0.00 0.13 0.00 95 1005.2
20260507042557 13 0 0.0 11.3 0.00 0.13 0.00 95 1005.3
20260507042056 13 262 0.0 11.3 0.00 0.13 0.00 95 1005.3
20260507041557 13 211 1.6 11.3 0.00 0.13 0.00 95 1005.6
20260507041057 13 0 1.6 4.8 0.00 0.13 0.00 95 1005.6
20260507040556 13 0 1.6 4.8 0.00 0.13 0.00 95 1005.5
20260507035554 13 167 0.0 8.0 0.00 0.13 0.13 94 1005.4
20260507035058 13 191 0.0 8.0 0.00 0.13 0.13 94 1005.5
20260507034603 13 266 1.6 9.7 0.00 0.13 0.13 94 1005.6
20260507034055 13 309 1.6 17.7 0.00 0.13 0.13 94 1005.6
20260507033557 13 0 1.6 17.7 0.00 0.13 0.13 94 1005.4
20260507033124 13 187 1.6 6.4 0.00 0.13 0.13 94 1005.2
20260507032557 13 137 0.0 12.9 0.00 0.13 0.13 94 1005.1
20260507032058 13 0 1.6 12.9 0.00 0.13 0.13 94 1005.1
20260507031602 13 103 1.6 8.0 0.00 0.13 0.13 94 1004.8
20260507031057 13 133 0.0 8.0 0.00 0.13 0.13 94 1004.8
20260507030557 13 32 0.0 8.0 0.00 0.13 0.13 94 1004.9
20260507030109 13 120 1.6 9.7 0.00 0.13 0.13 94 1005.0
20260507025556 12 132 1.6 12.9 0.00 0.13 0.13 94 1004.9
20260507025054 12 149 3.2 17.7 0.00 0.13 0.13 94 1005.0
20260507024609 12 182 4.8 19.3 0.00 0.13 0.13 94 1005.1
20260507024054 12 292 3.2 19.3 0.00 0.13 0.13 94 1005.1
20260507023559 12 148 1.6 17.7 0.00 0.13 0.13 94 1005.1
20260507023057 12 183 3.2 17.7 0.00 0.13 0.13 94 1005.1
20260507022557 12 189 0.0 12.9 0.00 0.13 0.13 94 1005.0
20260507022057 12 10 1.6 12.9 0.00 0.13 0.13 94 1004.9
20260507021558 12 224 3.2 12.9 0.00 0.13 0.13 93 1005.1
20260507021100 12 290 3.2 14.5 0.00 0.13 0.13 94 1005.2
20260507020557 12 88 0.0 14.5 0.00 0.13 0.13 93 1005.2
20260507015557 12 277 3.2 17.7 0.00 0.13 0.13 93 1005.2
20260507015100 12 279 1.6 11.3 0.00 0.13 0.13 93 1005.3
20260507014605 12 302 3.2 16.1 0.00 0.13 0.13 93 1005.5
20260507014058 12 0 1.6 19.3 0.00 0.13 0.13 93 1005.2
20260507013600 12 0 6.4 19.3 0.00 0.13 0.13 93 1005.4
20260507013102 12 137 3.2 16.1 0.00 0.13 0.13 93 1005.5
20260507012555 12 277 1.6 12.9 0.00 0.13 0.13 93 1005.5
20260507012057 12 0 4.8 14.5 0.00 0.13 0.13 93 1005.6
20260507011559 12 355 3.2 14.5 0.03 0.13 0.13 93 1005.6
20260507011059 12 293 4.8 16.1 0.03 0.13 0.13 93 1005.6
20260507010558 12 214 3.2 17.7 0.03 0.13 0.13 93 1005.6
20260507010056 12 221 4.8 17.7 0.03 0.13 0.13 93 1005.5
20260507005557 12 5 1.6 12.9 0.03 0.13 0.13 93 1005.5
20260507005056 12 248 3.2 14.5 0.03 0.13 0.13 93 1005.7
20260507004558 12 100 3.2 22.5 0.03 0.13 0.13 93 1005.7
20260507004057 12 234 3.2 22.5 0.05 0.13 0.13 93 1005.6
20260507003558 12 125 4.8 22.5 0.05 0.13 0.13 93 1005.5
20260507003104 12 126 6.4 22.5 0.08 0.13 0.13 93 1005.5
20260507002558 12 0 3.2 16.1 0.08 0.13 0.13 93 1005.5
20260507002057 12 170 4.8 19.3 0.08 0.13 0.13 93 1005.4
20260507001556 12 140 4.8 19.3 0.05 0.10 0.10 93 1005.4
20260507001059 12 99 3.2 16.1 0.05 0.10 0.10 93 1005.4
20260507000601 12 53 4.8 19.3 0.05 0.10 0.10 93 1005.5
20260507000100 12 144 3.2 19.3 0.05 0.10 0.10 93 1005.6
20260506235556 13 161 6.4 19.3 0.05 0.10 0.10 93 1005.4
20260506235057 12 108 4.8 19.3 0.05 0.10 0.10 93 1005.4
20260506234605 13 106 8.0 29.0 0.05 0.10 0.10 93 1005.2
20260506234058 13 112 8.0 29.0 0.03 0.08 0.08 93 1005.3
20260506233558 13 96 8.0 19.3 0.03 0.08 0.08 92 1005.4
20260506233058 13 103 4.8 19.3 0.00 0.05 0.05 93 1005.6
20260506232557 13 123 6.4 14.5 0.00 0.05 0.05 92 1005.6
20260506232100 13 119 6.4 20.9 0.00 0.05 0.05 93 1005.5
20260506231557 13 146 4.8 24.1 0.00 0.05 0.05 93 1005.6
20260506231056 13 127 6.4 24.1 0.00 0.05 0.05 92 1005.6
20260506230557 13 138 6.4 19.3 0.00 0.05 0.05 93 1005.8
20260506225555 13 142 8.0 22.5 0.00 0.05 0.05 92 1005.7
20260506225055 13 150 8.0 22.5 0.03 0.05 0.05 92 1005.7
20260506224602 13 128 11.3 22.5 0.03 0.05 0.05 91 1005.6
20260506224056 13 124 6.4 16.1 0.03 0.05 0.05 91 1005.8
20260506223555 13 153 8.0 27.4 0.03 0.05 0.05 91 1005.8
20260506223055 13 173 6.4 27.4 0.03 0.05 0.05 91 1005.9
20260506222558 13 96 4.8 20.9 0.03 0.05 0.05 91 1006.0
20260506222057 13 173 8.0 20.9 0.03 0.05 0.05 91 1005.9
20260506221600 13 107 4.8 24.1 0.03 0.05 0.05 91 1006.1
20260506221057 13 36 6.4 24.1 0.03 0.05 0.05 91 1006.2
20260506220557 13 136 6.4 17.7 0.05 0.05 0.05 90 1006.3
20260506220101 14 148 6.4 16.1 0.05 0.05 0.05 90 1006.4
20260506215558 14 109 4.8 16.1 0.05 0.05 0.05 90 1006.4
20260506215057 14 150 4.8 16.1 0.03 0.03 0.03 90 1006.5
20260506214559 14 134 6.4 16.1 0.03 0.03 0.03 90 1006.3
20260506214057 14 182 3.2 19.3 0.03 0.03 0.03 90 1006.5
20260506213558 14 151 8.0 19.3 0.03 0.03 0.03 89 1006.4
20260506213055 14 142 6.4 20.9 0.03 0.03 0.03 89 1006.5
20260506212555 14 134 6.4 20.9 0.03 0.03 0.03 89 1006.5
20260506212055 14 139 6.4 16.1 0.03 0.03 0.03 88 1006.6
20260506211558 15 159 4.8 16.1 0.03 0.03 0.03 87 1006.7
20260506211055 15 186 4.8 17.7 0.03 0.03 0.03 86 1006.8
20260506210555 15 155 4.8 19.3 0.00 0.00 0.00 85 1006.8
20260506210055 15 251 6.4 19.3 0.00 0.00 0.00 84 1006.8
20260506205558 15 141 4.8 17.7 0.00 0.00 0.00 83 1006.7
20260506205055 15 98 4.8 17.7 0.00 0.00 0.00 82 1006.8
20260506204556 15 169 3.2 17.7 0.00 0.00 0.00 82 1006.9
20260506204057 15 157 4.8 19.3 0.00 0.00 0.00 82 1006.8
20260506203557 15 130 4.8 22.5 0.00 0.00 0.00 82 1006.8
20260506203056 15 134 8.0 24.1 0.00 0.00 0.00 82 1006.7
20260506202557 15 127 9.7 24.1 0.00 0.00 0.00 81 1006.4
20260506202057 15 119 6.4 22.5 0.00 0.00 0.00 81 1006.3
20260506201558 15 109 9.7 22.5 0.00 0.00 0.00 81 1006.3
20260506201057 16 159 6.4 22.5 0.00 0.00 0.00 81 1006.6
20260506200557 16 36 6.4 19.3 0.00 0.00 0.00 81 1006.5
20260506200059 16 152 8.0 19.3 0.00 0.00 0.00 80 1006.6
20260506195557 16 191 6.4 22.5 0.00 0.00 0.00 80 1006.8
20260506195058 16 149 8.0 22.5 0.00 0.00 0.00 79 1006.9
20260506194556 16 199 8.0 20.9 0.00 0.00 0.00 78 1007.0
20260506194057 16 335 6.4 22.5 0.00 0.00 0.00 76 1007.2
20260506193600 17 148 6.4 22.5 0.00 0.00 0.00 75 1007.0
20260506193058 17 153 4.8 16.1 0.00 0.00 0.00 74 1007.0
20260506192557 17 148 6.4 22.5 0.00 0.00 0.00 73 1006.7
20260506192057 17 141 6.4 22.5 0.00 0.00 0.00 73 1006.7
20260506191558 17 127 6.4 24.1 0.00 0.00 0.00 73 1006.8
20260506191057 17 90 6.4 27.4 0.00 0.00 0.00 73 1006.6
20260506190557 17 215 4.8 27.4 0.00 0.00 0.00 73 1006.8
20260506190058 17 99 6.4 19.3 0.00 0.00 0.00 73 1007.0
20260506185557 17 248 8.0 22.5 0.00 0.00 0.00 73 1006.8
20260506185057 17 183 6.4 27.4 0.00 0.00 0.00 73 1006.8
20260506184557 17 15 9.7 27.4 0.00 0.00 0.00 74 1007.0
20260506184058 17 159 8.0 27.4 0.00 0.00 0.00 74 1006.9
20260506183558 17 248 8.0 27.4 0.00 0.00 0.00 73 1006.8
20260506183056 17 117 8.0 22.5 0.00 0.00 0.00 72 1007.0
20260506182557 17 146 8.0 22.5 0.00 0.00 0.00 72 1007.1
20260506182055 17 182 8.0 22.5 0.00 0.00 0.00 71 1007.2
20260506181559 17 132 6.4 22.5 0.00 0.00 0.00 71 1007.3
20260506181055 17 67 6.4 22.5 0.00 0.00 0.00 70 1007.4
20260506180556 18 130 8.0 25.7 0.00 0.00 0.00 69 1007.3
20260506180058 18 158 11.3 25.7 0.00 0.00 0.00 69 1007.6
20260506175558 18 88 8.0 20.9 0.00 0.00 0.00 69 1007.5
20260506175057 18 167 9.7 20.9 0.00 0.00 0.00 68 1007.4
20260506174557 19 147 4.8 27.4 0.00 0.00 0.00 68 1007.4
20260506174056 19 227 8.0 32.2 0.00 0.00 0.00 68 1007.5
20260506173557 18 156 9.7 32.2 0.00 0.00 0.00 68 1007.4
20260506173124 18 164 8.0 24.1 0.00 0.00 0.00 69 1007.5
20260506172557 18 132 9.7 24.1 0.00 0.00 0.00 70 1007.6
20260506172102 18 355 8.0 30.6 0.00 0.00 0.00 71 1007.6
20260506171610 17 113 9.7 30.6 0.00 0.00 0.00 72 1007.7
20260506171058 17 281 8.0 22.5 0.00 0.00 0.00 73 1007.7
20260506170557 17 146 9.7 27.4 0.00 0.00 0.00 72 1007.8
20260506170055 17 140 11.3 27.4 0.00 0.00 0.00 72 1007.8
20260506165557 17 169 8.0 22.5 0.00 0.00 0.00 71 1007.7
20260506165057 17 156 11.3 25.7 0.00 0.00 0.00 70 1007.8
20260506164606 17 132 9.7 25.7 0.00 0.00 0.00 70 1007.8
20260506164055 17 123 9.7 25.7 0.00 0.00 0.00 71 1008.0
20260506163558 17 132 9.7 25.7 0.00 0.00 0.00 71 1008.1
20260506163106 17 171 9.7 19.3 0.00 0.00 0.00 72 1008.1
20260506162557 17 136 9.7 27.4 0.00 0.00 0.00 72 1008.2
20260506162056 17 119 8.0 27.4 0.00 0.00 0.00 71 1008.2
20260506161636 17 135 11.3 27.4 0.00 0.00 0.00 71 1008.5
20260506161057 17 110 8.0 29.0 0.00 0.00 0.00 71 1008.5
20260506160555 17 136 11.3 29.0 0.00 0.00 0.00 71 1008.5
20260506160111 17 189 11.3 22.5 0.00 0.00 0.00 69 1008.7
20260506155558 17 130 6.4 22.5 0.00 0.00 0.00 69 1008.6
20260506155059 18 109 9.7 22.5 0.00 0.00 0.00 67 1008.8
20260506154600 18 146 9.7 22.5 0.00 0.00 0.00 67 1008.9
20260506154058 19 168 9.7 20.9 0.00 0.00 0.00 65 1009.0
20260506153557 20 150 8.0 24.1 0.00 0.00 0.00 65 1009.0
20260506153059 20 162 6.4 24.1 0.00 0.00 0.00 66 1009.0
20260506152557 19 120 8.0 24.1 0.00 0.00 0.00 66 1009.0
20260506152058 19 126 3.2 14.5 0.00 0.00 0.00 67 1009.2
20260506151558 19 176 4.8 19.3 0.00 0.00 0.00 67 1009.2
20260506151057 19 268 4.8 19.3 0.00 0.00 0.00 68 1009.3
20260506150557 19 297 4.8 16.1 0.00 0.00 0.00 68 1009.2
20260506150057 18 327 4.8 16.1 0.00 0.00 0.00 69 1009.2
20260506145601 18 36 4.8 20.9 0.00 0.00 0.00 70 1009.1
20260506145055 18 204 6.4 20.9 0.00 0.00 0.00 71 1009.1
20260506144556 17 164 9.7 22.5 0.00 0.00 0.00 72 1009.0
20260506144054 17 140 11.3 25.7 0.00 0.00 0.00 72 1008.8
20260506143555 17 112 9.7 25.7 0.00 0.00 0.00 73 1009.0
20260506143057 17 174 8.0 22.5 0.00 0.00 0.00 73 1008.9
20260506142556 17 117 9.7 22.5 0.00 0.00 0.00 73 1008.9
20260506142059 17 157 8.0 22.5 0.00 0.00 0.00 75 1008.8
20260506141556 16 115 8.0 24.1 0.00 0.00 0.00 75 1008.9
20260506141055 16 138 12.9 24.1 0.00 0.00 0.00 75 1009.1
20260506140555 16 131 6.4 25.7 0.00 0.00 0.00 75 1009.1
20260506140056 16 96 8.0 25.7 0.00 0.00 0.00 75 1009.1
20260506135558 17 130 6.4 22.5 0.00 0.00 0.00 75 1009.3
20260506135057 17 172 8.0 17.7 0.00 0.00 0.00 74 1009.5
20260506134555 17 103 4.8 19.3 0.00 0.00 0.00 74 1009.6
20260506134055 17 151 6.4 19.3 0.00 0.00 0.00 75 1009.5
20260506133557 17 117 6.4 22.5 0.00 0.00 0.00 76 1009.5
20260506133100 17 128 6.4 22.5 0.00 0.00 0.00 76 1009.4
20260506132554 16 225 6.4 27.4 0.00 0.00 0.00 76 1009.5
20260506132054 16 202 8.0 27.4 0.00 0.00 0.00 76 1009.4
20260506131602 16 195 6.4 19.3 0.00 0.00 0.00 77 1009.4
20260506131057 16 155 6.4 19.3 0.00 0.00 0.00 77 1009.5